Hourly Data Report for October 03, 2016

All times are specified in Local Standard Time (LST). Add 1 hour to adjust for Daylight Saving Time where and when it is observed.

GJOA HAVEN A
NUNAVUT

68°38'08.000" N
95°51'01.000" W
46.90 m
2302337
71597
YHK

Related Data

No related data is available for this station

Download Data

Hourly Data (October 2016)
Hourly Data Report for October 3, 2016
Temp Definition
°C
Dew Point Temp Definition
°C
Rel Hum Definition
%
Wind Dir Definition
10's deg

Wind Spd Definition
km/h
Visibility Definition
km
Stn Press Definition
kPa
Hmdx Definition


Wind Chill Definition


Weather Definition


TIME
00:00 Legend Double Dagger -2.9 -5.2 84 24 17 16.1 100.79   -8 LegendNANA
01:00 Legend Double Dagger -2.8 -5.1 84 25 15 16.1 100.70   -8 LegendNANA
02:00 Legend Double Dagger -2.7 -5.1 84 20 9 16.1 100.60   -6 LegendNANA
03:00 Legend Double Dagger -2.6 -4.5 87 23 15 16.1 100.49   -8 LegendNANA
04:00 Legend Double Dagger -2.7 -4.1 90 26 11 16.1 100.39   -7 LegendNANA
05:00 Legend Double Dagger -2.6 -4.4 87 26 8 16.1 100.26   -6 LegendNANA
06:00 Legend Double Dagger -2.6 -4.9 84 23 4 16.1 100.17   -4 LegendNANA
07:00 Legend Double Dagger -2.7 -4.9 85   0 16.1 100.08     LegendNANA
08:00 Legend Double Dagger -2.7 -4.6 87   0 16.1 99.99     LegendNANA
09:00 Legend Double Dagger -2.6 -4.0 90 7 5 16.1 99.93   -5 LegendNANA
10:00 Legend Double Dagger -2.2 -4.5 84 3 9 16.1 99.84   -6 LegendNANA
11:00 Legend Double Dagger -2.7 -3.4 95 2 18 12.9 99.77   -8 Snow
12:00 Legend Double Dagger -2.7 -3.8 92 1 21 16.1 99.70   -9 LegendNANA
13:00 Legend Double Dagger -2.3 -4.4 86 2 21 16.1 99.64   -8 LegendNANA
14:00 Legend Double Dagger -2.4 -4.2 87 1 18 16.1 99.62   -8 LegendNANA
15:00 Legend Double Dagger -2.7 -3.7 93 35 24 16.1 99.60   -9 LegendNANA
16:00 Legend Double Dagger -3.0 -3.7 95 36 28 16.1 99.58   -10 LegendNANA
17:00 Legend Double Dagger -3.5 -4.5 93 35 28 16.1 99.59   -11 LegendNANA
18:00 Legend Double Dagger -3.6 -5.4 87 35 26 16.1 99.61   -11 LegendNANA
19:00 Legend Double Dagger -3.1 -5.2 85 36 21 16.1 99.62   -9 LegendNANA
20:00 Legend Double Dagger -2.9 -3.9 93 1 26 11.3 99.62   -10 Snow
21:00 Legend Double Dagger -3.1 -3.8 95 35 26 16.1 99.66   -10 Snow
22:00 Legend Double Dagger -2.9 -3.5 96 36 28 8.1 99.69   -10 Snow
23:00 Legend Double Dagger -3.4 -5.0 89 35 28 16.1 99.74   -11 Snow

Notes on Data Quality.

Legend

  • E = Estimated
  • M = Missing
  • NA = Not Available
  • ‡ = Partner data that is not subject to review by the National Climate Archives
Date modified: